CHINASAT 6A (ZX 6A)

Last updated on Nov. 22, 2019, 4:19 a.m. UTC

1 37150U 10042A   19325.40025692 -.00000355  00000-0  00000+0 0  9994
2 37150   0.0643 113.7106 0001855 352.3535 223.2024  1.00270012 33830
UTC
Height (km)
Latitude
Longitude
Inclination
Orbital Period
UTC large
Height (km)
Speed (km/s)
/
Latitude / Longitude
Inclination (degrees)
Orbital Period (minutes)
Azimuth
Elevation
Range (km)
Doppler Factor
iOS Compass Heading
iOS Angle

Next 30 passes for location: Hong Kong

Rise time Rise Azimuth (degrees) Set time Set Azimuth (degrees) Duration Max altitude (degrees)

No matching passes for this satellites